Location: Unspecified
(27.2781°N, 0.0000°E)
Time: 10:45:12
(UTC+00:00)

BlueWalker 3 - Visible Passes

Search period start: 04 April 2026 00:00
Search period end: 14 April 2026 00:00
Orbit: 451 x 457 km, 53.2° (Epoch: 29 March)

Date Brightness Start Highest point End Pass type
(mag) Time Alt. Az. Time Alt. Az. Time Alt. Az.
8 Apr 4.8 20:37:33 10° NNW 20:37:52 12° NNW 20:37:52 12° NNW visible
9 Apr 3.8 20:01:25 10° N 20:03:03 19° NNE 20:03:03 19° NNE visible
10 Apr 3.7 19:25:24 10° N 19:27:44 16° NE 19:28:17 16° NE visible
10 Apr 5.3 21:01:56 10° WNW 21:01:59 10° WNW 21:01:59 10° WNW visible
11 Apr 4.0 18:49:41 10° NNE 18:51:09 12° NE 18:52:36 10° ENE visible
11 Apr 3.6 20:25:17 10° NW 20:27:18 30° WNW 20:27:18 30° WNW visible
12 Apr 1.6 19:48:43 10° NW 19:52:18 80° SW 19:52:42 67° SSE visible
13 Apr 1.7 19:12:15 10° NW 19:15:49 66° NE 19:18:12 19° SE visible
